Location: Jasper Marmot Meadows
(52.8392°N, 118.0718°W)
Time: 07:24:42
(UTC-06:00)

ISS - Visible Passes

Search period start: 18 September 2018 00:00
Search period end: 28 September 2018 00:00
Orbit: 402 x 408 km, 51.6° (Epoch: 18 September)

Date Brightness Start Highest point End Pass type
(mag) Time Alt. Az. Time Alt. Az. Time Alt. Az.
22 Sep -1.6 21:44:01 10° SSW 21:44:48 14° S 21:44:48 14° S visible
23 Sep -1.9 20:52:50 10° S 20:54:49 15° SE 20:55:21 15° SE visible
23 Sep -1.1 22:27:35 10° WSW 22:28:03 13° SW 22:28:03 13° SW visible
24 Sep -2.9 21:35:47 10° SW 21:38:23 33° S 21:38:23 33° S visible
25 Sep -2.5 20:44:08 10° SSW 20:46:55 25° SSE 20:48:35 17° ESE visible
25 Sep -1.8 22:19:48 10° WSW 22:21:16 24° WSW 22:21:16 24° WSW visible
26 Sep -3.7 21:27:51 10° WSW 21:31:03 52° SSE 21:31:21 50° SE visible
27 Sep -3.1 20:35:57 10° SW 20:39:03 39° SSE 20:41:21 16° E visible
27 Sep -2.2 22:12:05 10° W 22:14:01 32° WSW 22:14:01 32° WSW visible
